| time (UTC) | temp C | wind direction | speed KPH | gust KPH | rain 1hr cm | rain 24hr cm | rain mn cm | humidity % | barometer mb |
| 20260510081520 | 20 | 245 | 4.8 | 22.5 | 0.00 | 0.00 | 0.00 | 62 | 1009.6 |
| 20260510081031 | 20 | 205 | 6.4 | 22.5 | 0.00 | 0.00 | 0.00 | 62 | 1009.5 |
| 20260510080519 | 20 | 280 | 9.7 | 16.1 | 0.00 | 0.00 | 0.00 | 63 | 1009.5 |
| 20260510080024 | 20 | 139 | 4.8 | 11.3 | 0.00 | 0.00 | 0.00 | 64 | 1009.4 |
| 20260510075520 | 20 | 278 | 4.8 | 12.9 | 0.00 | 0.00 | 0.00 | 66 | 1009.5 |
| 20260510075019 | 19 | 138 | 3.2 | 12.9 | 0.00 | 0.00 | 0.00 | 67 | 1009.4 |
| 20260510074520 | 18 | 153 | 1.6 | 17.7 | 0.00 | 0.00 | 0.00 | 67 | 1009.4 |
| 20260510074031 | 19 | 251 | 6.4 | 17.7 | 0.00 | 0.00 | 0.00 | 64 | 1009.4 |
| 20260510073519 | 20 | 117 | 3.2 | 16.1 | 0.00 | 0.00 | 0.00 | 67 | 1009.4 |
| 20260510073020 | 19 | 312 | 3.2 | 16.1 | 0.00 | 0.00 | 0.00 | 70 | 1009.3 |
| 20260510072520 | 18 | 161 | 4.8 | 19.3 | 0.00 | 0.00 | 0.00 | 68 | 1009.3 |
| 20260510072020 | 18 | 281 | 4.8 | 19.3 | 0.00 | 0.00 | 0.00 | 71 | 1009.2 |
| 20260510071520 | 18 | 268 | 4.8 | 12.9 | 0.00 | 0.00 | 0.00 | 72 | 1009.1 |
| 20260510070530 | 18 | 278 | 1.6 | 9.7 | 0.00 | 0.00 | 0.00 | 75 | 1009.0 |
| 20260510070019 | 17 | 162 | 1.6 | 12.9 | 0.00 | 0.00 | 0.00 | 77 | 1009.0 |
| 20260510065519 | 17 | 131 | 4.8 | 12.9 | 0.00 | 0.00 | 0.00 | 77 | 1009.0 |
| 20260510065019 | 17 | 246 | 4.8 | 9.7 | 0.00 | 0.00 | 0.00 | 81 | 1008.9 |
| 20260510064519 | 16 | 263 | 1.6 | 9.7 | 0.00 | 0.00 | 0.00 | 84 | 1008.8 |
| 20260510064041 | 15 | 151 | 1.6 | 6.4 | 0.00 | 0.00 | 0.00 | 90 | 1008.8 |
| 20260510063520 | 14 | 151 | 1.6 | 4.8 | 0.00 | 0.00 | 0.00 | 93 | 1008.8 |
| 20260510063020 | 13 | 137 | 1.6 | 3.2 | 0.00 | 0.00 | 0.00 | 94 | 1008.8 |
| 20260510062519 | 13 | 239 | 1.6 | 3.2 | 0.00 | 0.00 | 0.00 | 95 | 1008.8 |
| 20260510061519 | 12 | 160 | 0.0 | 0.0 | 0.00 | 0.00 | 0.00 | 95 | 1008.7 |
| 20260510061019 | 12 | 160 | 0.0 | 0.0 | 0.00 | 0.00 | 0.00 | 95 | 1008.7 |
| 20260510060519 | 11 | 160 | 0.0 | 0.0 | 0.00 | 0.00 | 0.00 | 95 | 1008.7 |
| 20260510060019 | 11 | 160 | 0.0 | 0.0 | 0.00 | 0.00 | 0.00 | 95 | 1008.6 |
| 20260510055519 | 11 | 160 | 0.0 | 0.0 | 0.00 | 0.00 | 0.00 | 94 | 1008.7 |
| 20260510055019 | 11 | 160 | 0.0 | 0.0 | 0.00 | 0.00 | 0.00 | 95 | 1008.7 |
| 20260510054519 | 11 | 160 | 0.0 | 0.0 | 0.00 | 0.00 | 0.00 | 94 | 1008.6 |
| 20260510054018 | 10 | 160 | 0.0 | 0.0 | 0.00 | 0.00 | 0.00 | 94 | 1008.6 |
| 20260510053520 | 10 | 160 | 0.0 | 0.0 | 0.00 | 0.00 | 0.00 | 94 | 1008.6 |
| 20260510053019 | 11 | 160 | 0.0 | 0.0 | 0.00 | 0.00 | 0.00 | 94 | 1008.7 |
| 20260510052519 | 11 | 160 | 0.0 | 0.0 | 0.00 | 0.00 | 0.00 | 94 | 1008.7 |
| 20260510052019 | 11 | 160 | 0.0 | 0.0 | 0.00 | 0.00 | 0.00 | 94 | 1008.6 |
| 20260510051531 | 11 | 160 | 0.0 | 0.0 | 0.00 | 0.00 | 0.00 | 94 | 1008.6 |
| 20260510051019 | 11 | 160 | 0.0 | 0.0 | 0.00 | 0.00 | 0.00 | 94 | 1008.6 |
| 20260510050519 | 11 | 160 | 0.0 | 0.0 | 0.00 | 0.00 | 0.00 | 94 | 1008.7 |
| 20260510050024 | 11 | 160 | 0.0 | 0.0 | 0.00 | 0.00 | 0.00 | 94 | 1008.6 |
| 20260510045519 | 11 | 160 | 0.0 | 0.0 | 0.00 | 0.00 | 0.00 | 94 | 1008.6 |
| 20260510045019 | 11 | 160 | 0.0 | 0.0 | 0.00 | 0.00 | 0.00 | 93 | 1008.7 |
| 20260510044518 | 11 | 160 | 0.0 | 0.0 | 0.00 | 0.00 | 0.00 | 93 | 1008.6 |
| 20260510044019 | 11 | 160 | 0.0 | 0.0 | 0.00 | 0.00 | 0.00 | 93 | 1008.6 |
| 20260510043519 | 11 | 160 | 0.0 | 0.0 | 0.00 | 0.00 | 0.00 | 93 | 1008.4 |
| 20260510043019 | 11 | 160 | 0.0 | 0.0 | 0.00 | 0.00 | 0.00 | 93 | 1008.4 |
| 20260510042520 | 11 | 160 | 0.0 | 0.0 | 0.00 | 0.00 | 0.00 | 93 | 1008.4 |
| 20260510042031 | 11 | 160 | 0.0 | 0.0 | 0.00 | 0.00 | 0.00 | 93 | 1008.3 |
| 20260510041520 | 12 | 160 | 0.0 | 0.0 | 0.00 | 0.00 | 0.00 | 93 | 1008.4 |
| 20260510041019 | 12 | 160 | 0.0 | 0.0 | 0.00 | 0.00 | 0.00 | 93 | 1008.3 |
| 20260510040519 | 12 | 160 | 0.0 | 0.0 | 0.00 | 0.00 | 0.00 | 93 | 1008.3 |
| 20260510040019 | 12 | 160 | 0.0 | 0.0 | 0.00 | 0.00 | 0.00 | 93 | 1008.3 |
| 20260510035519 | 12 | 160 | 0.0 | 0.0 | 0.00 | 0.00 | 0.00 | 93 | 1008.4 |
| 20260510035019 | 12 | 160 | 0.0 | 0.0 | 0.00 | 0.00 | 0.00 | 93 | 1008.4 |
| 20260510034519 | 12 | 160 | 0.0 | 0.0 | 0.00 | 0.00 | 0.00 | 93 | 1008.4 |
| 20260510034019 | 12 | 160 | 0.0 | 0.0 | 0.00 | 0.00 | 0.00 | 93 | 1008.4 |
| 20260510033519 | 12 | 160 | 0.0 | 0.0 | 0.00 | 0.00 | 0.00 | 93 | 1008.4 |
| 20260510033030 | 12 | 160 | 0.0 | 1.6 | 0.00 | 0.00 | 0.00 | 93 | 1008.5 |
| 20260510032520 | 12 | 160 | 0.0 | 1.6 | 0.00 | 0.00 | 0.00 | 93 | 1008.5 |
| 20260510032019 | 12 | 161 | 0.0 | 0.0 | 0.00 | 0.00 | 0.00 | 93 | 1008.5 |
| 20260510031520 | 12 | 161 | 0.0 | 0.0 | 0.00 | 0.00 | 0.00 | 93 | 1008.7 |
| 20260510031019 | 12 | 161 | 0.0 | 0.0 | 0.00 | 0.00 | 0.00 | 93 | 1008.7 |
| 20260510030519 | 12 | 161 | 0.0 | 0.0 | 0.00 | 0.00 | 0.00 | 93 | 1008.7 |
| 20260510030019 | 13 | 161 | 0.0 | 0.0 | 0.00 | 0.00 | 0.00 | 93 | 1008.8 |
| 20260510025519 | 13 | 161 | 0.0 | 0.0 | 0.00 | 0.00 | 0.00 | 93 | 1008.8 |
| 20260510025019 | 13 | 161 | 0.0 | 0.0 | 0.00 | 0.00 | 0.00 | 93 | 1008.8 |
| 20260510024519 | 13 | 161 | 0.0 | 0.0 | 0.00 | 0.00 | 0.00 | 93 | 1008.8 |
| 20260510024019 | 13 | 161 | 0.0 | 0.0 | 0.00 | 0.00 | 0.00 | 93 | 1008.8 |
| 20260510023520 | 13 | 161 | 0.0 | 0.0 | 0.00 | 0.00 | 0.00 | 93 | 1008.9 |
| 20260510023020 | 13 | 161 | 0.0 | 0.0 | 0.00 | 0.00 | 0.00 | 93 | 1008.8 |
| 20260510022519 | 13 | 161 | 0.0 | 0.0 | 0.00 | 0.00 | 0.00 | 93 | 1008.9 |
| 20260510022019 | 13 | 161 | 0.0 | 0.0 | 0.00 | 0.00 | 0.00 | 93 | 1008.8 |
| 20260510021531 | 12 | 161 | 0.0 | 0.0 | 0.00 | 0.00 | 0.00 | 93 | 1008.8 |
| 20260510021019 | 12 | 161 | 0.0 | 0.0 | 0.00 | 0.00 | 0.00 | 93 | 1008.8 |
| 20260510020519 | 13 | 161 | 0.0 | 0.0 | 0.00 | 0.00 | 0.00 | 93 | 1008.8 |
| 20260510020019 | 12 | 161 | 0.0 | 0.0 | 0.00 | 0.00 | 0.00 | 93 | 1008.8 |
| 20260510015520 | 12 | 161 | 0.0 | 0.0 | 0.00 | 0.00 | 0.00 | 93 | 1008.8 |
| 20260510015031 | 12 | 161 | 0.0 | 0.0 | 0.00 | 0.00 | 0.00 | 92 | 1008.8 |
| 20260510014519 | 12 | 161 | 0.0 | 0.0 | 0.00 | 0.00 | 0.00 | 93 | 1008.8 |
| 20260510014020 | 12 | 161 | 0.0 | 0.0 | 0.00 | 0.00 | 0.00 | 92 | 1008.9 |
| 20260510013520 | 12 | 161 | 0.0 | 0.0 | 0.00 | 0.00 | 0.00 | 92 | 1008.9 |
| 20260510013020 | 12 | 161 | 0.0 | 0.0 | 0.00 | 0.00 | 0.00 | 92 | 1008.9 |
| 20260510012519 | 12 | 161 | 0.0 | 0.0 | 0.00 | 0.00 | 0.00 | 92 | 1008.9 |
| 20260510012031 | 12 | 161 | 0.0 | 0.0 | 0.00 | 0.00 | 0.00 | 92 | 1009.0 |
| 20260510011520 | 12 | 161 | 0.0 | 0.0 | 0.00 | 0.00 | 0.00 | 92 | 1008.9 |
| 20260510011020 | 12 | 161 | 0.0 | 0.0 | 0.00 | 0.00 | 0.00 | 92 | 1008.9 |
| 20260510010520 | 12 | 161 | 0.0 | 0.0 | 0.00 | 0.00 | 0.00 | 92 | 1009.0 |
| 20260510010020 | 12 | 161 | 0.0 | 0.0 | 0.00 | 0.00 | 0.00 | 91 | 1009.0 |
| 20260510005520 | 12 | 161 | 0.0 | 0.0 | 0.00 | 0.00 | 0.00 | 91 | 1009.1 |
| 20260510005030 | 12 | 161 | 0.0 | 0.0 | 0.00 | 0.00 | 0.00 | 90 | 1009.1 |
| 20260510004519 | 12 | 161 | 0.0 | 0.0 | 0.00 | 0.00 | 0.00 | 90 | 1009.1 |
| 20260510004031 | 12 | 161 | 0.0 | 0.0 | 0.00 | 0.00 | 0.00 | 91 | 1009.1 |
| 20260510003519 | 12 | 161 | 0.0 | 0.0 | 0.00 | 0.00 | 0.00 | 89 | 1009.1 |
| 20260510003020 | 12 | 161 | 0.0 | 0.0 | 0.00 | 0.00 | 0.00 | 89 | 1009.1 |
| 20260510002520 | 12 | 161 | 0.0 | 0.0 | 0.00 | 0.00 | 0.00 | 89 | 1009.0 |
| 20260510002020 | 12 | 161 | 0.0 | 0.0 | 0.00 | 0.00 | 0.00 | 89 | 1009.1 |
| 20260510001531 | 13 | 161 | 0.0 | 0.0 | 0.00 | 0.00 | 0.00 | 89 | 1009.1 |
| 20260510000520 | 13 | 161 | 0.0 | 1.6 | 0.00 | 0.00 | 0.00 | 89 | 1009.1 |
| 20260510000032 | 13 | 162 | 0.0 | 1.6 | 0.00 | 0.00 | 0.00 | 89 | 1009.0 |
| 20260509235521 | 13 | 131 | 0.0 | 0.0 | 0.00 | 0.00 | 0.00 | 89 | 1008.9 |
| 20260509235020 | 13 | 161 | 0.0 | 3.2 | 0.00 | 0.00 | 0.00 | 89 | 1009.1 |
| 20260509234521 | 13 | 258 | 0.0 | 1.6 | 0.00 | 0.00 | 0.00 | 89 | 1009.1 |
| 20260509234020 | 13 | 258 | 0.0 | 3.2 | 0.00 | 0.00 | 0.00 | 89 | 1009.0 |
| 20260509233520 | 13 | 151 | 1.6 | 3.2 | 0.00 | 0.00 | 0.00 | 89 | 1009.0 |
| 20260509233031 | 13 | 224 | 0.0 | 3.2 | 0.00 | 0.00 | 0.00 | 88 | 1009.0 |
| 20260509232521 | 13 | 160 | 0.0 | 1.6 | 0.00 | 0.00 | 0.00 | 87 | 1009.1 |
| 20260509232020 | 13 | 120 | 0.0 | 3.2 | 0.00 | 0.00 | 0.00 | 86 | 1009.1 |
| 20260509231532 | 14 | 102 | 0.0 | 3.2 | 0.00 | 0.00 | 0.00 | 86 | 1009.2 |
| 20260509231021 | 14 | 85 | 0.0 | 0.0 | 0.00 | 0.00 | 0.00 | 85 | 1009.3 |
| 20260509230518 | 14 | 137 | 0.0 | 0.0 | 0.00 | 0.00 | 0.00 | 85 | 1009.3 |
| 20260509230021 | 15 | 113 | 0.0 | 0.0 | 0.00 | 0.00 | 0.00 | 85 | 1009.4 |
| 20260509225520 | 15 | 113 | 0.0 | 0.0 | 0.00 | 0.03 | 0.00 | 84 | 1009.4 |
| 20260509225021 | 15 | 112 | 0.0 | 0.0 | 0.00 | 0.03 | 0.00 | 84 | 1009.4 |
| 20260509224519 | 15 | 113 | 0.0 | 1.6 | 0.00 | 0.03 | 0.00 | 83 | 1009.4 |
| 20260509224019 | 15 | 112 | 0.0 | 3.2 | 0.00 | 0.03 | 0.00 | 83 | 1009.5 |
| 20260509223519 | 15 | 106 | 0.0 | 3.2 | 0.00 | 0.03 | 0.00 | 83 | 1009.5 |
| 20260509223020 | 15 | 105 | 0.0 | 3.2 | 0.00 | 0.03 | 0.00 | 83 | 1009.5 |
| 20260509222531 | 15 | 104 | 0.0 | 3.2 | 0.00 | 0.03 | 0.00 | 83 | 1009.5 |
| 20260509222019 | 16 | 94 | 1.6 | 4.8 | 0.00 | 0.03 | 0.00 | 84 | 1009.6 |
| 20260509221520 | 16 | 140 | 1.6 | 4.8 | 0.00 | 0.03 | 0.00 | 84 | 1009.5 |
| 20260509221019 | 16 | 140 | 0.0 | 1.6 | 0.00 | 0.03 | 0.00 | 84 | 1009.6 |
| 20260509220521 | 16 | 141 | 0.0 | 4.8 | 0.00 | 0.03 | 0.00 | 85 | 1009.5 |
| 20260509220020 | 16 | 147 | 1.6 | 11.3 | 0.00 | 0.03 | 0.00 | 86 | 1009.4 |
| 20260509215519 | 16 | 150 | 3.2 | 11.3 | 0.00 | 0.03 | 0.03 | 88 | 1009.5 |
| 20260509215019 | 16 | 139 | 0.0 | 3.2 | 0.00 | 0.03 | 0.03 | 89 | 1009.5 |
| 20260509214520 | 16 | 13 | 0.0 | 3.2 | 0.00 | 0.03 | 0.03 | 90 | 1009.5 |
| 20260509214019 | 16 | 138 | 0.0 | 3.2 | 0.00 | 0.03 | 0.03 | 90 | 1009.6 |
| 20260509213531 | 17 | 93 | 0.0 | 4.8 | 0.00 | 0.03 | 0.03 | 90 | 1009.6 |
| 20260509213019 | 17 | 75 | 1.6 | 8.0 | 0.00 | 0.03 | 0.03 | 90 | 1009.7 |
| 20260509212519 | 16 | 77 | 3.2 | 8.0 | 0.00 | 0.03 | 0.03 | 90 | 1009.6 |
| 20260509212020 | 16 | 115 | 3.2 | 8.0 | 0.00 | 0.03 | 0.03 | 90 | 1009.8 |
| 20260509211531 | 16 | 73 | 1.6 | 8.0 | 0.00 | 0.03 | 0.03 | 90 | 1009.9 |
| 20260509211030 | 16 | 141 | 3.2 | 8.0 | 0.00 | 0.03 | 0.03 | 91 | 1010.1 |
| 20260509210521 | 16 | 111 | 1.6 | 3.2 | 0.00 | 0.03 | 0.03 | 90 | 1010.1 |
| 20260509210019 | 16 | 129 | 1.6 | 4.8 | 0.00 | 0.03 | 0.03 | 90 | 1010.1 |
| 20260509205519 | 16 | 121 | 1.6 | 4.8 | 0.00 | 0.03 | 0.03 | 91 | 1010.0 |
| 20260509205019 | 16 | 134 | 0.0 | 4.8 | 0.00 | 0.03 | 0.03 | 91 | 1010.1 |
| 20260509204520 | 16 | 134 | 0.0 | 4.8 | 0.00 | 0.03 | 0.03 | 90 | 1010.1 |
| 20260509204020 | 16 | 195 | 0.0 | 0.0 | 0.00 | 0.03 | 0.03 | 91 | 1009.9 |
| 20260509203519 | 16 | 131 | 0.0 | 0.0 | 0.00 | 0.03 | 0.03 | 90 | 1009.8 |
| 20260509203020 | 16 | 131 | 0.0 | 0.0 | 0.00 | 0.03 | 0.03 | 90 | 1009.8 |
| 20260509202519 | 16 | 131 | 0.0 | 0.0 | 0.00 | 0.03 | 0.03 | 89 | 1009.8 |
| 20260509202021 | 16 | 131 | 0.0 | 0.0 | 0.00 | 0.03 | 0.03 | 89 | 1009.7 |
| 20260509201020 | 16 | 131 | 0.0 | 0.0 | 0.00 | 0.03 | 0.03 | 89 | 1009.6 |
| 20260509200519 | 16 | 131 | 0.0 | 0.0 | 0.00 | 0.03 | 0.03 | 88 | 1009.6 |
| 20260509200019 | 16 | 131 | 0.0 | 0.0 | 0.00 | 0.03 | 0.03 | 88 | 1009.5 |
| 20260509195519 | 16 | 131 | 0.0 | 0.0 | 0.00 | 0.03 | 0.03 | 88 | 1009.5 |
| 20260509195019 | 16 | 131 | 0.0 | 0.0 | 0.00 | 0.03 | 0.03 | 88 | 1009.5 |
| 20260509194520 | 16 | 131 | 0.0 | 0.0 | 0.00 | 0.03 | 0.03 | 87 | 1009.4 |
| 20260509194020 | 16 | 131 | 0.0 | 0.0 | 0.00 | 0.03 | 0.03 | 87 | 1009.4 |
| 20260509193519 | 16 | 131 | 0.0 | 0.0 | 0.00 | 0.03 | 0.03 | 86 | 1009.3 |
| 20260509193019 | 17 | 131 | 0.0 | 0.0 | 0.00 | 0.03 | 0.03 | 86 | 1009.2 |
| 20260509192520 | 17 | 131 | 0.0 | 0.0 | 0.00 | 0.03 | 0.03 | 85 | 1009.1 |
| 20260509192020 | 17 | 131 | 0.0 | 0.0 | 0.00 | 0.03 | 0.03 | 85 | 1009.1 |
| 20260509191520 | 17 | 131 | 0.0 | 0.0 | 0.00 | 0.03 | 0.03 | 85 | 1009.1 |
| 20260509191019 | 17 | 131 | 0.0 | 0.0 | 0.00 | 0.03 | 0.03 | 84 | 1009.0 |
| 20260509190520 | 18 | 131 | 0.0 | 0.0 | 0.00 | 0.03 | 0.03 | 83 | 1009.1 |
| 20260509190021 | 18 | 131 | 0.0 | 0.0 | 0.00 | 0.03 | 0.03 | 83 | 1008.9 |
| 20260509185520 | 18 | 131 | 0.0 | 0.0 | 0.00 | 0.03 | 0.03 | 82 | 1008.9 |
| 20260509185020 | 18 | 131 | 0.0 | 1.6 | 0.00 | 0.03 | 0.03 | 81 | 1008.8 |
| 20260509184531 | 18 | 131 | 0.0 | 0.0 | 0.00 | 0.03 | 0.03 | 79 | 1008.9 |
| 20260509184020 | 19 | 131 | 0.0 | 1.6 | 0.00 | 0.03 | 0.03 | 79 | 1008.8 |
| 20260509183519 | 19 | 131 | 0.0 | 1.6 | 0.00 | 0.03 | 0.03 | 79 | 1008.7 |
| 20260509183019 | 19 | 105 | 0.0 | 1.6 | 0.00 | 0.03 | 0.03 | 78 | 1008.6 |
| 20260509182519 | 19 | 85 | 0.0 | 1.6 | 0.00 | 0.03 | 0.03 | 77 | 1008.7 |
| 20260509182018 | 20 | 85 | 0.0 | 3.2 | 0.00 | 0.03 | 0.03 | 77 | 1008.7 |
| 20260509181521 | 20 | 82 | 0.0 | 3.2 | 0.00 | 0.03 | 0.03 | 77 | 1008.5 |
| 20260509181020 | 20 | 243 | 0.0 | 3.2 | 0.00 | 0.03 | 0.03 | 76 | 1008.5 |
| 20260509180020 | 20 | 92 | 0.0 | 1.6 | 0.00 | 0.03 | 0.03 | 76 | 1008.3 |
| 20260509175520 | 20 | 189 | 0.0 | 1.6 | 0.00 | 0.03 | 0.03 | 75 | 1008.1 |
| 20260509175021 | 20 | 248 | 0.0 | 1.6 | 0.00 | 0.03 | 0.03 | 75 | 1008.3 |
| 20260509174520 | 20 | 248 | 0.0 | 3.2 | 0.00 | 0.03 | 0.03 | 75 | 1008.3 |
| 20260509174020 | 20 | 248 | 1.6 | 3.2 | 0.00 | 0.03 | 0.03 | 75 | 1008.2 |
| 20260509173521 | 20 | 259 | 0.0 | 3.2 | 0.00 | 0.03 | 0.03 | 75 | 1008.0 |
| 20260509173020 | 20 | 129 | 0.0 | 1.6 | 0.00 | 0.03 | 0.03 | 74 | 1008.0 |
| 20260509172522 | 20 | 128 | 0.0 | 1.6 | 0.00 | 0.03 | 0.03 | 75 | 1008.1 |
| 20260509172020 | 20 | 102 | 0.0 | 3.2 | 0.00 | 0.03 | 0.03 | 75 | 1008.1 |
| 20260509171521 | 20 | 226 | 1.6 | 3.2 | 0.00 | 0.03 | 0.03 | 74 | 1008.2 |
| 20260509171031 | 20 | 89 | 0.0 | 1.6 | 0.00 | 0.03 | 0.03 | 74 | 1008.2 |
| 20260509170520 | 20 | 89 | 0.0 | 1.6 | 0.00 | 0.03 | 0.03 | 74 | 1008.0 |
| 20260509170020 | 21 | 89 | 0.0 | 1.6 | 0.00 | 0.03 | 0.03 | 73 | 1008.2 |
| 20260509165520 | 21 | 89 | 0.0 | 1.6 | 0.00 | 0.03 | 0.03 | 74 | 1008.3 |
| 20260509165021 | 21 | 78 | 0.0 | 1.6 | 0.00 | 0.03 | 0.03 | 73 | 1008.3 |
| 20260509164521 | 21 | 78 | 0.0 | 4.8 | 0.00 | 0.03 | 0.03 | 72 | 1008.3 |
| 20260509164020 | 21 | 77 | 0.0 | 4.8 | 0.00 | 0.03 | 0.03 | 71 | 1008.3 |
| 20260509163520 | 21 | 154 | 0.0 | 1.6 | 0.00 | 0.03 | 0.03 | 71 | 1008.4 |
| 20260509163021 | 21 | 88 | 0.0 | 3.2 | 0.00 | 0.03 | 0.03 | 71 | 1008.3 |
| 20260509162531 | 22 | 230 | 0.0 | 3.2 | 0.00 | 0.03 | 0.03 | 70 | 1008.3 |
| 20260509162020 | 22 | 98 | 0.0 | 4.8 | 0.00 | 0.03 | 0.03 | 71 | 1008.3 |
| 20260509161521 | 22 | 270 | 1.6 | 4.8 | 0.00 | 0.03 | 0.03 | 68 | 1008.4 |
| 20260509161020 | 22 | 281 | 1.6 | 3.2 | 0.00 | 0.03 | 0.03 | 68 | 1008.4 |
| 20260509160520 | 22 | 97 | 0.0 | 3.2 | 0.00 | 0.03 | 0.03 | 69 | 1008.5 |
| 20260509160020 | 22 | 76 | 0.0 | 4.8 | 0.00 | 0.03 | 0.03 | 70 | 1008.4 |
| 20260509155521 | 22 | 305 | 1.6 | 6.4 | 0.00 | 0.03 | 0.03 | 69 | 1008.4 |
| 20260509155020 | 23 | 261 | 1.6 | 6.4 | 0.00 | 0.03 | 0.03 | 68 | 1008.4 |
| 20260509154520 | 23 | 120 | 1.6 | 4.8 | 0.00 | 0.03 | 0.03 | 67 | 1008.4 |
| 20260509154021 | 23 | 120 | 1.6 | 4.8 | 0.00 | 0.03 | 0.03 | 67 | 1008.4 |
| 20260509153532 | 23 | 270 | 1.6 | 8.0 | 0.00 | 0.03 | 0.03 | 68 | 1008.3 |
| 20260509153021 | 23 | 98 | 1.6 | 9.7 | 0.00 | 0.03 | 0.03 | 68 | 1008.4 |
| 20260509152531 | 23 | 110 | 1.6 | 9.7 | 0.00 | 0.03 | 0.03 | 68 | 1008.4 |
| 20260509152020 | 23 | 231 | 1.6 | 4.8 | 0.00 | 0.03 | 0.03 | 68 | 1008.4 |
| 20260509151521 | 23 | 314 | 1.6 | 8.0 | 0.00 | 0.03 | 0.03 | 71 | 1008.4 |
| 20260509151020 | 23 | 283 | 3.2 | 8.0 | 0.00 | 0.03 | 0.03 | 70 | 1008.8 |
| 20260509150520 | 23 | 352 | 1.6 | 4.8 | 0.00 | 0.03 | 0.03 | 70 | 1008.7 |
| 20260509150020 | 22 | 282 | 1.6 | 8.0 | 0.00 | 0.03 | 0.03 | 72 | 1008.7 |
| 20260509145521 | 22 | 235 | 3.2 | 8.0 | 0.00 | 0.03 | 0.03 | 71 | 1008.8 |
| 20260509145021 | 22 | 347 | 1.6 | 6.4 | 0.00 | 0.03 | 0.03 | 71 | 1008.8 |
| 20260509144520 | 23 | 240 | 1.6 | 6.4 | 0.00 | 0.03 | 0.03 | 64 | 1008.9 |
| 20260509144032 | 23 | 82 | 0.0 | 3.2 | 0.00 | 0.03 | 0.03 | 63 | 1008.6 |
| 20260509143532 | 23 | 314 | 0.0 | 4.8 | 0.00 | 0.03 | 0.03 | 63 | 1008.8 |
| 20260509143021 | 23 | 321 | 0.0 | 6.4 | 0.00 | 0.03 | 0.03 | 65 | 1008.7 |
| 20260509142521 | 22 | 154 | 3.2 | 6.4 | 0.00 | 0.03 | 0.03 | 61 | 1008.7 |
| 20260509142031 | 23 | 146 | 1.6 | 3.2 | 0.00 | 0.03 | 0.03 | 62 | 1008.7 |
| 20260509141520 | 23 | 297 | 0.0 | 1.6 | 0.00 | 0.03 | 0.03 | 68 | 1008.8 |
| 20260509141020 | 23 | 124 | 0.0 | 3.2 | 0.00 | 0.03 | 0.03 | 63 | 1008.8 |
| 20260509140519 | 23 | 116 | 0.0 | 1.6 | 0.00 | 0.03 | 0.03 | 67 | 1008.9 |
| 20260509140020 | 22 | 136 | 0.0 | 3.2 | 0.00 | 0.03 | 0.03 | 68 | 1008.9 |
| 20260509135519 | 22 | 127 | 1.6 | 3.2 | 0.00 | 0.03 | 0.03 | 65 | 1009.0 |
| 20260509135020 | 22 | 98 | 0.0 | 3.2 | 0.00 | 0.03 | 0.03 | 67 | 1009.0 |
| 20260509134520 | 22 | 88 | 0.0 | 3.2 | 0.00 | 0.03 | 0.03 | 65 | 1009.1 |
| 20260509134030 | 22 | 150 | 0.0 | 3.2 | 0.00 | 0.03 | 0.03 | 67 | 1009.2 |
| 20260509133520 | 22 | 122 | 1.6 | 3.2 | 0.00 | 0.03 | 0.03 | 66 | 1009.3 |
| 20260509133019 | 22 | 87 | 1.6 | 4.8 | 0.00 | 0.03 | 0.03 | 65 | 1009.3 |
| 20260509132520 | 23 | 115 | 0.0 | 4.8 | 0.00 | 0.03 | 0.03 | 69 | 1009.2 |
| 20260509132031 | 22 | 117 | 0.0 | 4.8 | 0.00 | 0.03 | 0.03 | 65 | 1009.1 |
| 20260509131522 | 22 | 134 | 1.6 | 4.8 | 0.00 | 0.03 | 0.03 | 64 | 1009.1 |
| 20260509131020 | 23 | 108 | 0.0 | 4.8 | 0.00 | 0.03 | 0.03 | 67 | 1009.1 |
| 20260509130520 | 22 | 157 | 1.6 | 4.8 | 0.00 | 0.03 | 0.03 | 66 | 1009.1 |
| 20260509130020 | 22 | 143 | 0.0 | 4.8 | 0.00 | 0.03 | 0.03 | 69 | 1009.2 |
| 20260509125520 | 22 | 121 | 1.6 | 4.8 | 0.00 | 0.03 | 0.03 | 68 | 1009.2 |
| 20260509125020 | 23 | 134 | 0.0 | 9.7 | 0.00 | 0.03 | 0.03 | 66 | 1009.2 |
| 20260509124531 | 23 | 96 | 1.6 | 9.7 | 0.00 | 0.03 | 0.03 | 65 | 1009.3 |
| 20260509124020 | 23 | 120 | 3.2 | 6.4 | 0.00 | 0.03 | 0.03 | 66 | 1009.4 |
| 20260509123520 | 23 | 108 | 0.0 | 6.4 | 0.00 | 0.03 | 0.03 | 67 | 1009.3 |
| 20260509123021 | 23 | 91 | 0.0 | 6.4 | 0.00 | 0.03 | 0.03 | 70 | 1009.5 |
| 20260509122520 | 23 | 115 | 1.6 | 6.4 | 0.00 | 0.03 | 0.03 | 68 | 1009.4 |
| 20260509122031 | 23 | 122 | 0.0 | 4.8 | 0.00 | 0.03 | 0.03 | 69 | 1009.5 |
| 20260509121520 | 23 | 120 | 0.0 | 3.2 | 0.00 | 0.03 | 0.03 | 69 | 1009.5 |
| 20260509121020 | 23 | 131 | 0.0 | 6.4 | 0.00 | 0.03 | 0.03 | 69 | 1009.6 |
| 20260509120520 | 22 | 126 | 1.6 | 6.4 | 0.00 | 0.03 | 0.03 | 69 | 1009.6 |
| 20260509120020 | 22 | 107 | 1.6 | 6.4 | 0.00 | 0.03 | 0.03 | 69 | 1009.7 |
| 20260509115520 | 22 | 129 | 0.0 | 6.4 | 0.00 | 0.03 | 0.03 | 69 | 1009.8 |
| 20260509115020 | 22 | 85 | 3.2 | 6.4 | 0.00 | 0.03 | 0.03 | 69 | 1009.7 |
| 20260509114520 | 22 | 140 | 0.0 | 8.0 | 0.00 | 0.03 | 0.03 | 70 | 1009.8 |
| 20260509114020 | 22 | 154 | 4.8 | 8.0 | 0.00 | 0.03 | 0.03 | 70 | 1009.9 |
| 20260509113521 | 22 | 86 | 1.6 | 4.8 | 0.00 | 0.03 | 0.03 | 72 | 1009.9 |
| 20260509113019 | 22 | 147 | 1.6 | 4.8 | 0.00 | 0.03 | 0.03 | 72 | 1009.9 |
| 20260509112522 | 22 | 119 | 0.0 | 3.2 | 0.00 | 0.03 | 0.03 | 75 | 1009.8 |
| 20260509112031 | 21 | 100 | 0.0 | 4.8 | 0.00 | 0.03 | 0.03 | 73 | 1009.9 |
| 20260509111521 | 21 | 139 | 1.6 | 6.4 | 0.00 | 0.03 | 0.03 | 72 | 1009.9 |
| 20260509111021 | 21 | 80 | 1.6 | 6.4 | 0.00 | 0.03 | 0.03 | 73 | 1009.9 |
| 20260509110521 | 21 | 102 | 1.6 | 6.4 | 0.00 | 0.03 | 0.03 | 72 | 1009.9 |
| 20260509110020 | 21 | 143 | 4.8 | 8.0 | 0.00 | 0.03 | 0.03 | 73 | 1009.9 |
| 20260509105520 | 21 | 86 | 3.2 | 9.7 | 0.00 | 0.03 | 0.03 | 71 | 1009.9 |
| 20260509105020 | 21 | 94 | 1.6 | 9.7 | 0.00 | 0.03 | 0.03 | 73 | 1009.7 |
| 20260509104520 | 21 | 93 | 1.6 | 6.4 | 0.00 | 0.03 | 0.03 | 74 | 1009.8 |
| 20260509104021 | 21 | 112 | 1.6 | 9.7 | 0.00 | 0.03 | 0.03 | 75 | 1009.8 |
| 20260509103531 | 21 | 113 | 4.8 | 9.7 | 0.00 | 0.03 | 0.03 | 73 | 1009.8 |
| 20260509103021 | 21 | 112 | 3.2 | 6.4 | 0.00 | 0.03 | 0.03 | 73 | 1009.6 |
| 20260509102520 | 21 | 77 | 1.6 | 8.0 | 0.00 | 0.03 | 0.03 | 75 | 1009.6 |
| 20260509102020 | 21 | 135 | 4.8 | 9.7 | 0.00 | 0.03 | 0.03 | 74 | 1009.6 |
| 20260509101521 | 21 | 134 | 4.8 | 9.7 | 0.00 | 0.03 | 0.03 | 76 | 1009.7 |
| 20260509101020 | 21 | 131 | 3.2 | 8.0 | 0.00 | 0.03 | 0.03 | 77 | 1009.6 |
| 20260509100531 | 20 | 124 | 3.2 | 11.3 | 0.00 | 0.03 | 0.03 | 77 | 1009.7 |
| 20260509100020 | 20 | 126 | 4.8 | 11.3 | 0.00 | 0.03 | 0.03 | 75 | 1009.7 |
| 20260509095520 | 20 | 94 | 0.0 | 6.4 | 0.00 | 0.03 | 0.03 | 78 | 1009.7 |
| 20260509095021 | 20 | 91 | 3.2 | 6.4 | 0.00 | 0.03 | 0.03 | 77 | 1009.8 |
| 20260509094520 | 20 | 87 | 3.2 | 8.0 | 0.00 | 0.03 | 0.03 | 80 | 1009.9 |
| 20260509094020 | 20 | 116 | 3.2 | 8.0 | 0.00 | 0.03 | 0.03 | 80 | 1009.9 |
| 20260509093520 | 19 | 19 | 1.6 | 8.0 | 0.00 | 0.03 | 0.03 | 80 | 1009.9 |
| 20260509093020 | 20 | 86 | 3.2 | 8.0 | 0.00 | 0.03 | 0.03 | 79 | 1009.9 |
| 20260509092520 | 19 | 131 | 1.6 | 6.4 | 0.00 | 0.03 | 0.03 | 80 | 1010.0 |
| 20260509092021 | 19 | 87 | 3.2 | 6.4 | 0.00 | 0.03 | 0.03 | 81 | 1010.1 |
| 20260509091521 | 18 | 136 | 3.2 | 6.4 | 0.00 | 0.03 | 0.03 | 83 | 1010.1 |
| 20260509091020 | 18 | 101 | 1.6 | 6.4 | 0.00 | 0.03 | 0.03 | 84 | 1010.1 |
| 20260509090520 | 18 | 122 | 3.2 | 6.4 | 0.00 | 0.03 | 0.03 | 83 | 1010.2 |
| 20260509090021 | 18 | 102 | 3.2 | 8.0 | 0.00 | 0.03 | 0.03 | 85 | 1010.1 |
| 20260509085531 | 17 | 140 | 3.2 | 6.4 | 0.00 | 0.03 | 0.03 | 85 | 1010.1 |
| 20260509085021 | 17 | 84 | 3.2 | 6.4 | 0.00 | 0.03 | 0.03 | 87 | 1010.2 |
| 20260509084520 | 17 | 120 | 1.6 | 6.4 | 0.00 | 0.03 | 0.03 | 88 | 1010.3 |
| 20260509084032 | 17 | 101 | 3.2 | 6.4 | 0.00 | 0.03 | 0.03 | 90 | 1010.4 |
| 20260509083520 | 17 | 196 | 0.0 | 3.2 | 0.00 | 0.03 | 0.03 | 92 | 1010.4 |
| 20260509083020 | 16 | 141 | 1.6 | 6.4 | 0.00 | 0.03 | 0.03 | 92 | 1010.4 |
| 20260509082521 | 16 | 131 | 3.2 | 6.4 | 0.00 | 0.03 | 0.03 | 92 | 1010.4 |
| 20260509082021 | 16 | 32 | 1.6 | 6.4 | 0.00 | 0.03 | 0.03 | 93 | 1010.4 |